Ceiba, PR

12:28 AM AST on February 24, 2017 (GMT -0400)
Roosevelt Roads Ns

Weather History for TJNR - September, 2013

Change the Weather History Date:

Monday, September 2, 2013

  Actual Average Record
Temperature  
Mean Temperature 84 °F -  
Max Temperature 90 °F 86 °F 90 °F (2012)
Min Temperature 78 °F 74 °F 73 °F (2000)
Cooling Degree Days 19    
Growing Degree Days 34 (Base 50)    
Moisture  
Dew Point 75 °F    
Average Humidity 77    
Maximum Humidity 90    
Minimum Humidity 65    
Precipitation  
Precipitation 0.12 in - - ()
Sea Level Pressure  
Sea Level Pressure 29.94 in    
Wind  
Wind Speed 8 mph (NE)    
Max Wind Speed 13 mph    
Max Gust Speed -    
Visibility 10 miles    
Events Rain    
Averages and records for this station are not official NWS values.
T = Trace of Precipitation, MM = Missing Value Source: NWS Daily Summary

Daily Weather History Graph

Daily Weather History Graph

Search for Another Location

Airport or City:

Trip Planner

Search our weather history database for the weather conditions in past years. The results will help you decide how hot, cold, wet, or windy it might be!

Date:

Astronomy

Sep. 02, 2013 Rise Set
Actual Time 6:08 AM AST 6:35 PM AST
Civil Twilight 5:46 AM AST 6:57 PM AST
Nautical Twilight 5:20 AM AST 7:23 PM AST
Astronomical Twilight 4:54 AM AST 7:49 PM AST
Moon 3:36 AM AST (9/2) 4:35 PM AST (9/2)
Length of Visible Light 13h 11m
Length of Day
12h 27m
Waning Crescent, 8% of the Moon is Illuminated
Sep 2
Waning Crescent
Sep 5
New
Sep 12
First Quarter
Sep 19
Full
Sep 26
Last Quarter

Hourly Weather History & Observations

Time (AST) Temp. Heat Index Dew Point Humidity Pressure Visibility Wind Dir Wind Speed Gust Speed Precip Events Conditions
12:22 AM 84.2 °F 92.3 °F 75.2 °F 74% 29.97 in 10.0 mi ENE 8.1 mph - N/A   Overcast
12:53 AM 82.9 °F 90.8 °F 75.9 °F 79% 29.96 in 10.0 mi ENE 10.4 mph - N/A   Mostly Cloudy
1:14 AM 82.4 °F 89.5 °F 75.2 °F 79% 29.95 in 10.0 mi ENE 6.9 mph - N/A   Mostly Cloudy
1:34 AM 82.4 °F 89.5 °F 75.2 °F 79% 29.94 in 10.0 mi NE 9.2 mph - N/A   Mostly Cloudy
1:53 AM 82.9 °F 90.8 °F 75.9 °F 79% 29.94 in 10.0 mi NE 9.2 mph - N/A   Mostly Cloudy
2:18 AM 82.4 °F 89.5 °F 75.2 °F 79% 29.93 in 10.0 mi East 6.9 mph - N/A   Mostly Cloudy
2:37 AM 82.4 °F 89.5 °F 75.2 °F 79% 29.93 in 10.0 mi ENE 8.1 mph - N/A   Scattered Clouds
2:53 AM 82.9 °F 90.2 °F 75.0 °F 77% 29.93 in 10.0 mi ENE 6.9 mph - N/A   Scattered Clouds
3:25 AM 82.4 °F 88.2 °F 73.4 °F 74% 29.91 in 10.0 mi ENE 9.2 mph - N/A   Mostly Cloudy
3:33 AM 82.4 °F 89.5 °F 75.2 °F 79% 29.91 in 10.0 mi NE 10.4 mph - N/A   Mostly Cloudy
3:46 AM 82.4 °F 89.5 °F 75.2 °F 79% 29.92 in 10.0 mi ENE 8.1 mph - N/A   Mostly Cloudy
3:53 AM 82.0 °F 88.6 °F 75.0 °F 79% 29.92 in 10.0 mi NE 6.9 mph - N/A   Mostly Cloudy
4:53 AM 82.9 °F 90.2 °F 75.0 °F 77% 29.93 in 10.0 mi East 6.9 mph - N/A   Overcast
5:53 AM 82.0 °F 88.6 °F 75.0 °F 79% 29.94 in 10.0 mi East 5.8 mph - N/A   Partly Cloudy
6:53 AM 82.9 °F 90.2 °F 75.0 °F 77% 29.95 in 9.0 mi East 6.9 mph - N/A   Partly Cloudy
7:53 AM 86.0 °F 96.0 °F 75.9 °F 72% 29.96 in 10.0 mi ENE 6.9 mph - N/A   Partly Cloudy
8:53 AM 84.9 °F 94.1 °F 75.9 °F 74% 29.98 in 10.0 mi ENE 8.1 mph - N/A   Mostly Cloudy
9:53 AM 86.0 °F 96.0 °F 75.9 °F 72% 29.99 in 10.0 mi East 12.7 mph - N/A   Mostly Cloudy
10:06 AM 80.6 °F 86.2 °F 75.2 °F 84% 30.00 in 3.0 mi ENE 3.5 mph - 0.07 in Rain Light Rain
10:53 AM 88.0 °F 101.3 °F 78.1 °F 72% 29.99 in 10.0 mi NE 5.8 mph - 0.07 in   Overcast
11:53 AM 86.0 °F 95.1 °F 75.0 °F 70% 29.98 in 10.0 mi ENE 8.1 mph - N/A   Clear
12:53 PM 89.1 °F 101.4 °F 77.0 °F 67% 29.96 in 10.0 mi NE 10.4 mph - N/A   Clear
1:53 PM 90.0 °F 102.5 °F 77.0 °F 65% 29.94 in 10.0 mi ENE 10.4 mph - N/A   Clear
2:53 PM 89.1 °F 100.2 °F 75.9 °F 65% 29.91 in 10.0 mi NE 11.5 mph - N/A   Clear
3:53 PM 88.0 °F 97.5 °F 75.0 °F 65% 29.91 in 10.0 mi NE 12.7 mph - N/A   Clear
4:53 PM 86.0 °F 93.8 °F 73.9 °F 67% 29.91 in 10.0 mi NE 10.4 mph - N/A   Partly Cloudy
5:53 PM 82.9 °F 90.2 °F 75.0 °F 77% 29.91 in 10.0 mi NE 8.1 mph - N/A   Clear
6:53 PM 82.9 °F 90.8 °F 75.9 °F 79% 29.92 in 10.0 mi NE 8.1 mph - N/A   Scattered Clouds
7:53 PM 82.9 °F 90.8 °F 75.9 °F 79% 29.94 in 10.0 mi North 11.5 mph - N/A   Scattered Clouds
8:53 PM 79.0 °F - 75.9 °F 90% 29.95 in 10.0 mi NNW 6.9 mph - 0.00 in   Mostly Cloudy
9:16 PM 78.8 °F - 75.2 °F 89% 29.95 in 10.0 mi NNE 6.9 mph - N/A   Scattered Clouds
9:53 PM 80.1 °F 83.8 °F 72.0 °F 76% 29.96 in 10.0 mi NNE 6.9 mph - N/A   Mostly Cloudy
10:53 PM 79.0 °F - 75.9 °F 90% 29.96 in 5.0 mi ENE 8.1 mph - 0.05 in Rain Light Rain
11:53 PM 81.0 °F 87.3 °F 75.9 °F 85% 29.94 in 10.0 mi NE 8.1 mph - 0.00 in   Scattered Clouds